When you browse on this site, cookies collect data to enhance your experience and personalize the content and advertising you see.
Visit our Privacy Policy to learn more. By continuing to use the site, you agree to this use of cookies and data.
  • în România
  • Lista ţărilor
  • Pe 7 zile
  • Temperatura apei
  • Hartă satelitară
  • Meteo pe hartă
  • Widget-uri
  • user-avatar
    Intrare

    Meteo pe oră la Bahawalpur

    Astăzi, 20 Iulie, Sâmbătă

    Timp Temperatura Precipitaţii Vânt Presiune Umiditate
    00:00 +39°C° 0 mm 3 m/s 739 mmHg 44%
    01:00 +39°C° 0 mm 2 m/s 739 mmHg 44%
    02:00 +39°C° 0 mm 2 m/s 739 mmHg 45%
    03:00 +38°C° 0.4 mm 2 m/s 739 mmHg 45%
    04:00 +38°C° 0.4 mm 2 m/s 739 mmHg 45%
    05:00 +37°C° 0.4 mm 2 m/s 739 mmHg 45%
    06:00 +38°C° 0.2 mm 2 m/s 740 mmHg 44%
    07:00 +38°C° 0.2 mm 3 m/s 740 mmHg 42%
    08:00 +39°C° 0.2 mm 3 m/s 741 mmHg 40%
    09:00 +40°C° 0 mm 3 m/s 741 mmHg 37%
    10:00 +41°C° 0 mm 2 m/s 741 mmHg 34%
    11:00 +43°C° 0 mm 2 m/s 741 mmHg 31%
    12:00 +43°C° 0 mm 2 m/s 740 mmHg 30%
    13:00 +44°C° 0 mm 1 m/s 740 mmHg 28%
    14:00 +45°C° 0 mm 1 m/s 739 mmHg 26%
    15:00 +44°C° 0.1 mm 1 m/s 739 mmHg 26%
    16:00 +45°C° 0.1 mm 2 m/s 738 mmHg 27%
    17:00 +45°C° 0.1 mm 3 m/s 738 mmHg 27%
    18:00 +45°C° 0 mm 2 m/s 738 mmHg 28%
    19:00 +43°C° 0 mm 2 m/s 738 mmHg 29%
    20:00 +43°C° 0 mm 2 m/s 739 mmHg 30%
    21:00 +43°C° 0 mm 1 m/s 739 mmHg 31%
    22:00 +42°C° 0 mm 1 m/s 739 mmHg 32%
    23:00 +42°C° 0 mm 1 m/s 739 mmHg 33%

    Mâine, 21 Iulie, Duminică

    Timp Temperatura Precipitaţii Vânt Presiune Umiditate
    00:00 +41°C° 0.1 mm 1 m/s 739 mmHg 34%
    01:00 +41°C° 0.1 mm 1 m/s 739 mmHg 35%
    02:00 +40°C° 0.1 mm 1 m/s 739 mmHg 36%
    03:00 +39°C° 0.3 mm 2 m/s 739 mmHg 38%
    04:00 +39°C° 0.3 mm 2 m/s 739 mmHg 41%
    05:00 +38°C° 0.3 mm 2 m/s 739 mmHg 43%
    06:00 +39°C° 0.1 mm 1 m/s 739 mmHg 40%
    07:00 +40°C° 0.1 mm 1 m/s 739 mmHg 37%
    08:00 +41°C° 0.1 mm 1 m/s 740 mmHg 34%
    09:00 +42°C° 0 mm 2 m/s 740 mmHg 31%
    10:00 +44°C° 0 mm 3 m/s 740 mmHg 28%
    11:00 +45°C° 0 mm 3 m/s 740 mmHg 25%
    12:00 +46°C° 0 mm 3 m/s 739 mmHg 24%
    13:00 +47°C° 0 mm 3 m/s 739 mmHg 22%
    14:00 +48°C° 0 mm 3 m/s 738 mmHg 21%
    15:00 +47°C° 0 mm 3 m/s 738 mmHg 21%
    16:00 +47°C° 0 mm 3 m/s 737 mmHg 21%
    17:00 +47°C° 0 mm 3 m/s 737 mmHg 21%
    18:00 +47°C° 0 mm 2 m/s 737 mmHg 22%
    19:00 +46°C° 0 mm 2 m/s 737 mmHg 23%
    20:00 +46°C° 0 mm 2 m/s 737 mmHg 24%
    21:00 +45°C° 0 mm 2 m/s 737 mmHg 25%
    22:00 +45°C° 0 mm 2 m/s 737 mmHg 25%
    23:00 +44°C° 0 mm 3 m/s 737 mmHg 26%

    Poimâine, 22 Iulie, Luni

    Timp Temperatura Precipitaţii Vânt Presiune Umiditate
    00:00 +44°C° 0 mm 3 m/s 737 mmHg 27%
    01:00 +43°C° 0 mm 3 m/s 737 mmHg 28%
    02:00 +43°C° 0 mm 3 m/s 736 mmHg 28%
    03:00 +42°C° 0 mm 4 m/s 736 mmHg 30%
    04:00 +41°C° 0 mm 5 m/s 737 mmHg 31%
    05:00 +41°C° 0 mm 5 m/s 737 mmHg 33%
    06:00 +41°C° 0 mm 6 m/s 737 mmHg 31%
    07:00 +43°C° 0 mm 7 m/s 737 mmHg 30%
    08:00 +44°C° 0 mm 8 m/s 738 mmHg 29%
    09:00 +45°C° 0 mm 8 m/s 738 mmHg 26%
    10:00 +47°C° 0 mm 7 m/s 738 mmHg 23%
    11:00 +50°C° 0 mm 7 m/s 738 mmHg 21%
    12:00 +50°C° 0 mm 7 m/s 737 mmHg 20%
    13:00 +51°C° 0 mm 6 m/s 737 mmHg 19%
    14:00 +52°C° 0 mm 6 m/s 736 mmHg 18%
    15:00 +52°C° 0 mm 6 m/s 736 mmHg 17%
    16:00 +52°C° 0 mm 6 m/s 735 mmHg 17%
    17:00 +52°C° 0 mm 5 m/s 735 mmHg 17%
    18:00 +50°C° 0 mm 5 m/s 735 mmHg 18%
    19:00 +49°C° 0 mm 5 m/s 735 mmHg 19%
    20:00 +48°C° 0 mm 5 m/s 735 mmHg 20%
    21:00 +47°C° 0 mm 5 m/s 735 mmHg 21%
    22:00 +47°C° 0 mm 6 m/s 735 mmHg 23%
    23:00 +46°C° 0 mm 7 m/s 735 mmHg 24%

    23 Iulie, Marţi

    Timp Temperatura Precipitaţii Vânt Presiune Umiditate
    00:00 +45°C° 0 mm 7 m/s 735 mmHg 25%
    01:00 +45°C° 0 mm 7 m/s 735 mmHg 27%
    02:00 +44°C° 0 mm 7 m/s 735 mmHg 28%
    03:00 +43°C° 0 mm 7 m/s 735 mmHg 30%
    04:00 +43°C° 0 mm 7 m/s 735 mmHg 32%
    05:00 +41°C° 0 mm 7 m/s 735 mmHg 34%
    06:00 +41°C° 0 mm 8 m/s 736 mmHg 33%
    07:00 +41°C° 0 mm 8 m/s 736 mmHg 33%
    08:00 +43°C° 0 mm 9 m/s 737 mmHg 32%
    09:00 +44°C° 0 mm 9 m/s 737 mmHg 29%
    10:00 +47°C° 0 mm 9 m/s 737 mmHg 26%
    11:00 +48°C° 0 mm 9 m/s 737 mmHg 23%
    12:00 +49°C° 0 mm 8 m/s 736 mmHg 22%
    13:00 +51°C° 0 mm 8 m/s 736 mmHg 20%
    14:00 +52°C° 0 mm 8 m/s 735 mmHg 18%
    15:00 +52°C° 0 mm 7 m/s 735 mmHg 18%
    16:00 +52°C° 0 mm 7 m/s 734 mmHg 17%
    17:00 +52°C° 0 mm 7 m/s 734 mmHg 17%
    18:00 +51°C° 0 mm 6 m/s 734 mmHg 18%
    19:00 +49°C° 0 mm 6 m/s 734 mmHg 19%
    20:00 +48°C° 0 mm 6 m/s 734 mmHg 20%
    21:00 +48°C° 0 mm 6 m/s 734 mmHg 21%
    22:00 +47°C° 0 mm 7 m/s 734 mmHg 22%
    23:00 +46°C° 0 mm 8 m/s 734 mmHg 23%

    24 Iulie, Miercuri

    Timp Temperatura Precipitaţii Vânt Presiune Umiditate
    00:00 +46°C° 0 mm 8 m/s 734 mmHg 24%
    01:00 +45°C° 0 mm 8 m/s 734 mmHg 26%
    02:00 +44°C° 0 mm 8 m/s 734 mmHg 28%
    03:00 +43°C° 0 mm 8 m/s 734 mmHg 31%
    04:00 +41°C° 0 mm 8 m/s 734 mmHg 33%
    05:00 +40°C° 0 mm 8 m/s 735 mmHg 36%
    06:00 +42°C° 0 mm 9 m/s 735 mmHg 34%
    07:00 +42°C° 0 mm 9 m/s 735 mmHg 33%
    08:00 +43°C° 0 mm 9 m/s 736 mmHg 31%
    09:00 +44°C° 0 mm 10 m/s 735 mmHg 29%
    10:00 +47°C° 0 mm 10 m/s 735 mmHg 26%
    11:00 +48°C° 0 mm 10 m/s 735 mmHg 24%
    12:00 +49°C° 0 mm 10 m/s 735 mmHg 22%
    13:00 +50°C° 0 mm 9 m/s 734 mmHg 21%
    14:00 +51°C° 0 mm 9 m/s 734 mmHg 19%
    15:00 +51°C° 0 mm 9 m/s 733 mmHg 19%
    16:00 +51°C° 0 mm 9 m/s 733 mmHg 18%
    17:00 +51°C° 0 mm 8 m/s 733 mmHg 18%
    18:00 +50°C° 0 mm 8 m/s 733 mmHg 19%
    19:00 +49°C° 0 mm 8 m/s 733 mmHg 21%
    20:00 +47°C° 0 mm 7 m/s 733 mmHg 22%
    21:00 +46°C° 0 mm 8 m/s 733 mmHg 24%
    22:00 +45°C° 0 mm 8 m/s 734 mmHg 27%
    23:00 +45°C° 0 mm 9 m/s 734 mmHg 29%

    25 Iulie, Joi

    Timp Temperatura Precipitaţii Vânt Presiune Umiditate
    00:00 +43°C° 0 mm 9 m/s 734 mmHg 32%
    01:00 +42°C° 0 mm 9 m/s 734 mmHg 36%
    02:00 +40°C° 0 mm 9 m/s 734 mmHg 39%
    03:00 +39°C° 0 mm 9 m/s 734 mmHg 43%
    04:00 +37°C° 0 mm 9 m/s 734 mmHg 46%
    05:00 +35°C° 0 mm 9 m/s 734 mmHg 49%
    06:00 +35°C° 0 mm 9 m/s 734 mmHg 49%
    07:00 +37°C° 0 mm 10 m/s 735 mmHg 49%
    08:00 +37°C° 0 mm 10 m/s 735 mmHg 49%
    09:00 +38°C° 0 mm 10 m/s 735 mmHg 45%
    10:00 +40°C° 0 mm 10 m/s 735 mmHg 42%
    11:00 +43°C° 0 mm 9 m/s 735 mmHg 38%
    12:00 +44°C° 0 mm 9 m/s 735 mmHg 34%
    13:00 +47°C° 0 mm 9 m/s 734 mmHg 30%
    14:00 +49°C° 0 mm 8 m/s 734 mmHg 26%
    15:00 +49°C° 0 mm 8 m/s 733 mmHg 25%
    16:00 +49°C° 0 mm 7 m/s 733 mmHg 25%
    17:00 +49°C° 0 mm 7 m/s 733 mmHg 24%
    18:00 +47°C° 0 mm 7 m/s 733 mmHg 26%
    19:00 +46°C° 0 mm 7 m/s 733 mmHg 27%
    20:00 +45°C° 0 mm 6 m/s 733 mmHg 29%
    21:00 +44°C° 0 mm 7 m/s 733 mmHg 32%
    22:00 +43°C° 0 mm 8 m/s 734 mmHg 35%
    23:00 +42°C° 0 mm 9 m/s 734 mmHg 38%
    Arată mai mult